Regional Weather Roundup
Issued by NWS

Home | Current Version | Previous Version | Text Only | Print | Product List | Glossary Off
Versions: 1 2 3 4 5 6 7 8 9 10 11 12 13 14 15 16 17 18 19 20 21 22 23 24 25 26 27

000
ASUS45 KBOI 180310
RWRID

IDAHO REGIONAL WEATHER ROUNDUP
NATIONAL WEATHER SERVICE BOISE ID
800 PM MST WED JAN 17 2018

NOTE: "FAIR" INDICATES FEW OR NO CLOUDS BELOW 12000 FEET
WITH NO SIGNIFICANT WEATHER AND/OR OBSTRUCTIONS TO VISIBILITY

IDZ012-014-180400-
SOUTHWEST IDAHO


CITY           SKY/WX    TMP DP  RH WIND       PRES   REMARKS
BOISE          CLOUDY    43  33  68 SE9       30.21F
CALDWELL       CLOUDY    42  36  79 SE8       30.21F
MOUNTAIN HOME  CLOUDY    42  39  91 SE13      30.23F
$$

IDZ016-017-180400-
SOUTHCENTRAL IDAHO


CITY           SKY/WX    TMP DP  RH WIND       PRES   REMARKS
BURLEY         PTCLDY    33  29  85 E3        30.25F
JEROME         MOCLDY    37  30  75 NE14      30.26S WCI  28
TWIN FALLS     MOCLDY    35  34  96 E8        30.24F WCI  29
$$

IDZ019>023-180400-
SOUTHEAST IDAHO


CITY           SKY/WX    TMP DP  RH WIND       PRES   REMARKS
IDAHO FALLS    MOCLDY    31  28  89 N3        30.32F
POCATELLO      MOCLDY    33  29  85 CALM      30.31F
REXBURG        CLOUDY    29  24  82 NE5       30.32S WCI  24
$$

IDZ006-010-011-018-031-032-180400-
CENTRAL IDAHO MOUNTAINS


CITY           SKY/WX    TMP DP  RH WIND       PRES   REMARKS
MCCALL         CLOUDY    31  29  92 CALM      30.18F
HAILEY         PTCLDY    30  27  86 NW7       30.32R WCI  23
STANLEY          N/A     22  18  85 SE3       30.26F
SALMON         PTCLDY    21  19  92 S5        30.30R WCI  15
CHALLIS        MOCLDY    26  22  84 CALM      30.28S
$$

IDZ002-004-006-007-026-180400-
NORTHERN IDAHO


CITY           SKY/WX    TMP DP  RH WIND       PRES   REMARKS
LEWISTON       CLOUDY    45  36  70 E8        29.99F
LOWELL           N/A     35  34  96 N6        30.13F WCI  30
COEUR D`ALENE  CLOUDY    35  33  92 NE10      29.98F WCI  27
MULLAN PASS    CLOUDY    30  27  88 VRB5      29.98F WCI  25
$$




USA.gov is the U.S. government's official web portal to all federal, state and local government web resources and services.